Home   Weather   Bryansk   Past weeks

Flag for Russia Past Weather in Bryansk, Russia — Yesterday and Last 2 Weeks

Now
23 °F

Snow flurries. Overcast.


Feels Like: 11 °F
Forecast: 14 / 31 °F
Wind: 13 mph from Northwest

Location: Brjansk

Current Time: Dec 4, 2016 at 3:24:12 pm

Latest Report: Dec 4, 2016 at 3:00 pm


Visibility: 6 mi

Pressure: 29.98 "Hg

Humidity: 80%

Dew Point: 18 °F

Location of BryanskLocation

Past Weather in Bryansk — Graph

°F

Bryansk Temperature Yesterday

Maximum temperature yesterday: 25 °F (at 12:00 pm)
Minimum temperature yesterday: 21 °F (at 5:30 pm)
Average temperature yesterday: 24 °F

High & Low Weather Summary for the Past Weeks

 TemperatureHumidityPressure
High37 °F (Nov 20, 1:00 pm)100% (Nov 24, 9:00 am)30.66 "Hg (Nov 24, 9:00 am)
Low9 °F (Nov 30, 5:00 am)59% (Nov 22, 2:30 pm)29.39 "Hg (Nov 27, 9:00 am)
Average26 °F87%30.01 "Hg
* Reported Nov 19 2:00 pm — Dec 4 2:00 pm, Bryansk, Weather by CustomWeather, © 2016

Note: Actual official high and low records may vary slightly from our data, if they occured in-between our weather recording intervals... More about our weather records

Advertising

Bryansk Weather History for the Previous 24 Hours

Scroll right to see more
 ConditionsComfort  
Time TempWeatherWind HumidityBarometerVisibility
2:00 pm
Sun, Dec 4
23 °FOvercast.10 mph80%29.95 "Hg6 mi
1:30 pm23 °FSnow flurries. Overcast.10 mph86%29.95 "Hg4 mi
1:00 pm23 °FSnow flurries. Overcast.8 mph86%29.95 "Hg4 mi
12:30 pm23 °FSnow flurries. Overcast.10 mph86%29.95 "Hg4 mi
12:00 pm21 °FOvercast.8 mph93%29.92 "Hg4 mi
11:30 am21 °FPartly sunny.6 mph93%29.92 "Hg4 mi
11:00 am21 °FSnow flurries. Partly sunny.6 mph93%29.92 "Hg4 mi
10:30 am21 °FSnow flurries. Overcast.8 mph93%29.92 "Hg4 mi
10:00 am21 °FSnow flurries. Partly sunny.3 mph93%29.92 "Hg4 mi
9:30 am21 °FLight snow. Partly sunny.3 mph93%29.89 "Hg4 mi
9:00 am19 °FPartly sunny.3 mph100%29.89 "Hg4 mi
8:30 am19 °FPassing clouds.6 mph93%29.89 "Hg4 mi
6:00 pm
Sat, Dec 3
23 °FLight snow. Ice fog.1 mph93%29.77 "Hg2 mi
5:30 pm21 °FLight snow. Ice fog.3 mph93%29.77 "Hg2 mi
5:00 pm23 °FSnow flurries. Ice fog.1 mph93%29.74 "Hg2 mi
4:30 pm23 °FSnow flurries. Ice fog.1 mph100%29.74 "Hg2 mi
4:00 pm25 °FSnow flurries. Ice fog.1 mph93%29.74 "Hg2 mi
3:30 pm25 °FSnow flurries. Ice fog.1 mph93%29.74 "Hg2 mi
3:00 pm25 °FSnow flurries. Ice fog.1 mph93%29.74 "Hg3 mi
Weather by CustomWeather, © 2016

See weather overviewHow to use our weather pages